Date,TemperatureHighF,TemperatureAvgF,TemperatureLowF,DewpointHighF,DewpointAvgF,DewpointLowF,HumidityHigh,HumidityAvg,HumidityLow,PressureMaxIn,PressureMinIn,WindSpeedMaxMPH,WindSpeedAvgMPH,GustSpeedMaxMPH,PrecipitationSumIn
2014-1-1,9.0,5.7,2.4,4.0,1.3,-3.0,86,82,77,30.51,30.22,16,7,19,0.00
2014-1-2,6.4,1.7,-2.1,-2.0,-3.8,-6.0,85,78,68,30.59,30.48,9,3,12,0.00
2014-1-3,37.7,21.0,0.5,28.0,13.6,-5.0,79,73,66,30.48,29.62,26,13,38,0.00
2014-1-4,38.4,20.4,6.4,32.0,14.0,1.0,83,76,69,30.30,29.66,23,9,37,0.00
2014-1-5,7.2,0.7,-10.3,1.0,-9.0,-20.0,78,64,50,30.65,30.30,29,11,37,0.00
2014-1-6,2.7,-5.6,-12.9,-9.0,-14.7,-21.0,73,65,57,30.64,30.42,19,7,27,0.00
2014-1-7,23.3,11.4,-1.6,11.0,2.4,-10.0,74,68,58,30.41,30.15,9,3,15,0.00
2014-1-8,18.8,15.1,11.6,9.0,7.8,6.0,81,73,67,30.48,30.33,11,4,14,0.00
2014-1-9,26.3,17.9,8.0,23.0,13.1,3.0,91,81,68,30.44,29.97,12,6,19,0.00
2014-1-10,33.9,30.0,25.1,32.0,28.8,23.0,96,95,91,29.97,29.58,14,4,18,0.00
2014-1-11,44.8,34.8,26.6,32.0,25.9,22.0,93,71,50,29.83,29.63,20,7,22,0.00
2014-1-12,50.6,43.1,36.7,34.0,30.3,27.0,72,62,47,29.70,29.44,20,8,29,0.00
2014-1-13,45.5,38.3,29.2,32.0,26.5,23.0,81,63,44,29.86,29.64,24,8,26,0.01
2014-1-14,44.9,29.6,16.5,35.0,16.1,-99.9,73,61,47,30.25,29.64,34,-8,43,0.00
2014-1-15,38.5,22.9,9.1,28.0,13.3,4.0,81,68,51,30.27,29.79,20,7,26,0.00
2014-1-16,45.1,31.5,12.8,30.0,18.4,2.0,83,60,47,30.08,29.73,34,16,54,0.00
2014-1-17,31.3,20.1,9.6,13.0,0.7,-6.0,61,45,26,30.23,29.86,21,10,35,0.00
2014-1-18,40.8,29.3,18.9,32.0,20.1,14.0,86,70,52,30.10,29.66,30,12,51,0.00
2014-1-19,65.2,43.0,21.6,28.0,23.8,18.0,86,52,19,30.04,29.67,24,10,31,0.00
2014-1-20,44.1,29.7,2.0,30.0,18.5,-7.0,76,64,50,30.49,29.84,34,12,44,0.00
2014-1-21,25.7,7.4,-4.7,15.0,-7.2,-13.0,70,53,36,30.57,30.13,15,6,22,0.00
2014-1-22,26.0,15.7,-2.2,18.0,7.2,-10.0,78,69,55,30.67,30.12,19,8,31,0.00
2014-1-23,14.9,3.9,-6.2,-4.0,-8.2,-12.0,76,59,39,30.93,30.53,21,8,27,0.00
2014-1-24,51.0,31.7,12.6,38.0,16.2,-7.0,69,54,38,30.52,29.71,28,15,39,0.00
2014-1-25,42.1,33.1,24.5,33.0,22.3,11.0,88,66,42,30.08,29.54,25,9,29,0.00
2014-1-26,50.9,35.2,3.1,35.0,20.1,-13.0,69,55,22,30.32,29.51,36,16,52,0.00
2014-1-27,8.6,2.5,-2.2,-9.0,-10.9,-12.0,66,54,40,30.58,30.32,17,7,25,0.00
2014-1-28,18.4,7.3,-3.2,-3.0,-8.1,-12.0,67,51,35,30.57,30.31,20,5,24,0.00
2014-1-29,44.4,25.7,7.6,14.0,6.2,-6.0,68,46,27,30.31,29.61,23,10,31,0.00
2014-1-30,39.3,28.3,15.2,23.0,12.2,6.0,76,54,32,30.10,29.44,29,10,34,0.00
2014-1-31,22.9,16.9,11.1,16.0,5.1,0.0,87,61,46,30.23,30.03,9,3,14,0.00
2014-2-1,22.9,17.9,9.6,20.0,12.5,4.0,91,80,64,30.36,29.97,16,4,24,0.00
2014-2-2,27.3,13.4,1.1,14.0,6.0,-2.0,85,73,55,30.45,30.29,11,4,19,0.00
2014-2-3,30.9,20.3,8.6,16.0,11.0,4.0,82,68,52,30.32,30.24,13,5,19,0.00
2014-2-4,22.6,14.3,1.8,18.0,10.4,-2.0,89,84,67,30.48,30.29,19,7,27,0.00
2014-2-5,8.1,2.8,-2.8,-1.0,-3.6,-9.0,85,75,58,30.76,30.49,18,9,27,0.00
2014-2-6,8.4,-0.0,-8.5,1.0,-6.7,-14.0,80,74,64,30.74,30.51,12,6,17,0.00
2014-2-7,16.0,8.5,1.4,6.0,0.6,-5.0,81,71,55,30.51,30.24,16,7,21,0.00
2014-2-8,24.7,17.4,10.8,18.0,12.6,6.0,91,81,66,30.29,30.08,12,5,16,0.00
2014-2-9,16.1,8.6,2.0,12.0,2.0,-3.0,86,75,64,30.54,30.30,12,4,16,0.00
2014-2-10,10.9,4.2,-4.4,2.0,-3.1,-9.0,83,72,59,30.64,30.54,8,2,11,0.00
2014-2-11,18.2,11.6,4.5,10.0,3.6,-2.0,75,70,62,30.57,30.16,20,9,31,0.00
2014-2-12,25.3,21.6,16.7,22.0,16.5,8.0,91,80,68,30.18,29.85,15,6,25,0.00
2014-2-13,48.8,35.0,24.1,32.0,24.9,16.0,86,68,45,29.88,29.73,18,8,28,0.00
2014-2-14,26.3,20.1,15.5,18.0,12.8,9.0,88,74,56,30.15,29.67,17,6,21,0.00
2014-2-15,55.0,31.6,16.6,35.0,22.4,9.0,86,70,34,30.11,29.80,24,9,46,0.00
2014-2-16,31.1,25.7,19.2,26.0,21.9,17.0,89,85,78,30.20,29.90,23,7,25,0.00
2014-2-17,51.9,39.5,27.7,33.0,26.1,21.0,94,64,32,29.95,29.82,25,9,35,0.09
2014-2-18,62.3,47.4,38.8,32.0,26.8,23.0,71,46,28,29.92,29.61,26,11,37,0.00
2014-2-19,49.7,40.5,29.8,32.0,27.0,22.0,80,61,35,29.93,29.58,18,7,26,0.00
2014-2-20,42.4,33.8,23.9,36.0,28.1,16.0,96,80,69,29.75,29.48,24,11,36,0.06
2014-2-21,44.9,30.7,20.4,31.0,21.7,15.0,80,70,50,29.90,29.75,19,6,24,0.00
2014-2-22,36.0,30.2,25.9,27.0,20.0,13.0,87,67,42,30.24,29.89,11,4,17,0.00
2014-2-23,29.4,23.5,17.9,14.0,10.0,6.0,71,57,44,30.42,30.25,12,4,17,0.00
2014-2-24,23.3,21.2,19.4,18.0,14.9,11.0,91,77,62,30.42,30.27,9,3,14,0.00
2014-2-25,11.6,9.3,4.4,3.0,1.2,-3.0,72,69,64,30.57,30.46,17,9,20,0.00
2014-2-26,33.0,16.0,-2.2,16.0,5.9,-7.0,82,66,49,30.56,29.96,24,9,33,0.00
2014-2-27,19.5,9.4,1.4,9.0,-3.3,-12.0,79,58,36,30.27,29.97,15,7,21,0.00
2014-2-28,35.2,21.1,9.5,23.0,11.2,1.0,91,67,46,30.21,29.86,19,8,24,0.00
2014-3-1,16.7,5.0,-1.2,12.0,-0.8,-8.0,83,76,70,30.64,30.21,19,8,22,0.00
2014-3-2,0.4,-2.9,-6.9,-7.0,-12.0,-15.0,79,65,50,30.75,30.61,14,6,19,0.00
2014-3-3,16.3,6.3,-6.8,4.0,-4.9,-14.0,76,61,42,30.71,30.23,21,7,24,0.00
2014-3-4,33.1,22.5,11.4,21.0,12.0,4.0,80,65,53,30.23,30.02,13,5,17,0.00
2014-3-5,28.7,22.8,18.0,21.0,17.2,13.0,86,79,70,30.35,30.16,11,6,16,0.00
2014-3-6,38.2,29.7,23.0,33.0,25.8,20.0,93,86,76,30.32,29.83,22,10,28,0.00
2014-3-7,39.5,33.1,24.4,35.0,28.4,19.0,91,83,72,30.22,29.78,21,9,27,0.00
2014-3-8,37.3,26.5,16.4,21.0,17.7,13.0,86,71,51,30.41,30.23,14,5,20,0.00
2014-3-9,72.0,48.9,27.4,35.0,26.6,18.0,73,47,21,30.29,29.79,29,13,43,0.00
2014-3-10,74.3,58.6,43.1,40.0,35.2,29.0,59,43,27,29.78,29.54,16,5,22,0.00
2014-3-11,57.9,43.3,32.1,39.0,34.9,29.0,96,74,49,30.08,29.44,22,9,36,0.02
2014-3-12,50.8,37.6,28.4,35.0,28.8,26.0,91,73,41,30.20,30.05,21,6,24,0.00
2014-3-13,67.0,51.1,33.2,33.0,26.6,22.0,72,43,20,30.05,29.63,21,9,28,0.00
2014-3-14,56.3,49.7,40.7,33.0,24.6,19.0,63,40,25,29.92,29.60,29,9,39,0.00
2014-3-15,54.6,40.5,27.1,33.0,27.2,21.0,93,61,38,30.27,29.84,23,10,31,0.00
2014-3-16,39.3,29.4,21.2,25.0,15.4,7.0,93,60,29,30.43,30.09,12,6,17,0.00
2014-3-17,58.3,40.7,25.8,30.0,22.9,17.0,71,52,31,30.08,29.43,25,12,32,0.00
2014-3-18,52.3,42.3,30.1,33.0,29.6,26.0,95,63,46,29.79,29.40,27,9,33,0.00
2014-3-19,32.1,31.3,29.7,31.0,29.8,29.0,95,94,89,29.96,29.80,23,13,27,0.00